Tracking 18945 objects as of 19-Jan-2018
HD Live streaming from Space Station
objects crossing your sky now

STEP 2

Track STEP 2 now!
10-day predictions
STEP 2 is classified as:


NORAD ID: 23105
Int'l Code: 1994-029A
Perigee: 574.0 km
Apogee: 727.0 km
Inclination: 81.9 °
Period: 97.6 minutes
Semi major axis: 7021 km
RCS: 2.0652 m2 (large)
Launch date: May 19, 1994
Source: United States (US)
Launch site: AIR FORCE WESTERN TEST RANGE (AFWTR)
aabbcc
Your satellite tracking list
Your tracking list is empty




NASA's NSSDC Master Catalog

Two Line Element Set (TLE):
1 23105U 94029A   18019.07876198  .00000234  00000-0  27823-4 0  9995
2 23105  81.9490  12.3030 0108915  95.9986 265.3648 14.75566005266112
Source of the keplerian elements: AFSPC